Home > Weather > Swakopmund > Past weeks

Flag for Namibia Weather for the Past 2 Weeks in Swakopmund, Namibia

Now
64 °F

Low clouds.


Feels Like: 64 °F
Forecast: 66 / 76 °F
Wind: 7 mph from North

Location: Walvis Bay

Current Time: Feb 7, 2016 at 8:50:48 AM

Latest Report: Feb 7, 2016 at 8:00 AM


Visibility: N/A

Pressure: 30.04 "Hg

Humidity: 88%

Dew point: 61 °F

Location of SwakopmundLocation

Historic Weather in Swakopmund — Graph

°F

Swakopmund Temperature Yesterday

Maximum temperature yesterday: 84 °F (at 1:00 PM)
Minimum temperature yesterday: 68 °F (at 10:00 PM)
Average temperature yesterday: 75 °F

High & Low Weather Summary for the Past Weeks

 TemperatureHumidityPressure
High90 °F (Jan 30, 2:00 PM)88% (Jan 23, 7:00 AM)30.07 "Hg (Jan 23, 7:00 AM)
Low57 °F (Jan 28, 6:00 AM)38% (Jan 30, 2:00 PM)29.77 "Hg (Jan 31, 5:00 PM)
Average72 °F69%29.95 "Hg
* Reported Jan 23 7:00 AM — Feb 7 7:00 AM, Swakopmund, Weather by CustomWeather, © 2016

Note: Actual official high and low records may vary slightly from our data, if they occured in-between our weather recording intervals... More about our weather records

Advertising

Swakopmund Weather History for the Previous 24 Hours

 ConditionsComfort  
Time TempWeatherWind HumidityBarometerVisibility
7:00 AM
Sun, Feb 7
64 °FLow clouds.7 mph88%30.01 "HgN/A
6:00 AM64 °FLow clouds.7 mph88%29.98 "HgN/A
5:00 AM64 °FMild.6 mph88%29.98 "HgN/A
4:00 AM64 °FMild.5 mph83%29.98 "HgN/A
3:00 AM64 °FMild.3 mph83%29.98 "HgN/A
2:00 AM64 °FMild.3 mph83%29.98 "HgN/A
1:00 AM66 °FMild.3 mph83%30.01 "HgN/A
12:00 AM66 °FMild.3 mph83%30.01 "HgN/A
11:00 PM
Sat, Feb 6
68 °FMild.3 mph73%30.01 "HgN/A
10:00 PM68 °FMild.8 mph73%30.01 "HgN/A
6:00 PM75 °FMild.15 mph54%29.92 "HgN/A
4:00 PM77 °FWarm.20 mph51%29.92 "HgN/A
3:00 PM77 °FWarm.20 mph51%29.95 "HgN/A
2:00 PM79 °FPartly sunny.17 mph51%29.98 "HgN/A
1:00 PM84 °FScattered clouds.6 mph40%29.98 "HgN/A
12:00 PM79 °FScattered clouds.3 mph51%30.01 "HgN/A
11:00 AM75 °FMild.2 mph65%30.01 "HgN/A
10:00 AM70 °FScattered clouds.3 mph73%30.01 "HgN/A
Weather by CustomWeather, © 2016

See weather overviewHow to use our weather pages